Weather Roundup
Issued by NWS Chicago, IL

Home | Current Version | Previous Version | Text Only | Print | Product List | Glossary Off
Versions: 1 2 3 4 5 6 7 8 9 10 11 12 13 14 15 16 17 18 19 20 21 22 23 24 25 26 27 28 29 30 31 32 33 34 35 36 37 38 39 40 41 42 43 44 45 46 47 48 49 50

000
NZUS59 KLOT 191808
HRRLOT

CHICAGO AREA WEATHER ROUNDUP
NATIONAL WEATHER SERVICE CHICAGO/ROMEOVILLE IL
100 PM CDT SAT AUG 19 2017

NOTE: "FAIR" INDICATES FEW OR NO CLOUDS BELOW 12,000 FEET WITH NO
SIGNIFICANT WEATHER AND/OR OBSTRUCTIONS TO VISIBILITY.

* THESE STATIONS ARE NOT UNDER NWS QUALITY CONTROL. THEY ALSO MAY NOT
  REPORT WEATHER SUCH AS PRECIPITATION OR FOG.

ILZ005-006-012>014-019>023-191900-
NORTHEAST ILLINOIS

CITY           SKY/WX    TMP DP  RH WIND       PRES   REMARKS
OHARE          MOSUNNY   80  54  40 VRB3      29.96S HX  80
6HR MIN TEMP:  65; 6HR MAX TEMP:  82;

MIDWAY         MOSUNNY   79  59  50 VRB5      29.96S HX  80
6HR MIN TEMP:  66; 6HR MAX TEMP:  80;

AURORA         SUNNY     78  60  53 VRB3      29.98S
6HR MIN TEMP:  57; 6HR MAX TEMP:  79;

LANSING*       SUNNY     80  56  44 NE8       29.97R HX  80
JOLIET*        SUNNY     81  58  46 CALM      29.97S HX  81
WAUKEGAN       MOSUNNY   76  64  66 CALM      29.96S
6HR MIN TEMP:  63; 6HR MAX TEMP:  78;

DUPAGE AIRPORT SUNNY     80  59  48 N3        29.97S HX  81
6HR MIN TEMP:  60; 6HR MAX TEMP:  80;

WHEELING       SUNNY     80  58  46 W5        29.97F HX  80
6HR MIN TEMP:  63; 6HR MAX TEMP:  81;

MORRIS*        SUNNY     78  62  57 CALM      29.97R
LEWIS AIRPORT* SUNNY     80  55  40 CALM      29.97S HX  80
NORTHERLY ISL    N/A     74  62  66 E5          N/A
$$

WIZ051-052-058>065-066-070>072-191900-
SOUTHEAST WISCONSIN

CITY           SKY/WX    TMP DP  RH WIND       PRES   REMARKS
MILWAUKEE      MOSUNNY   80  58  46 NW8       29.95F HX  80
6HR MIN TEMP:  65; 6HR MAX TEMP:  81;

KENOSHA*       SUNNY     78  59  51 SW5       29.97S
RACINE*        SUNNY     78  60  53 W6        29.97F
WAUKESHA       MOSUNNY   72  61  68 NW6       29.98F
WEST BEND      MOSUNNY   75  61  60 W8        29.96S
$$

INZ001>003-010>013-019-020-191900-
NORTHWEST INDIANA

CITY           SKY/WX    TMP DP  RH WIND       PRES   REMARKS
GARY*          SUNNY     77  59  53 VRB5      29.98S
MICHIGAN CITY* NOT AVBL
RENSSELAER*    NOT AVBL
VALPARAISO     SUNNY     80  61  52 VRB5      29.97F HX  81
$$

LMZ740>746-191900-
SOUTHERN LAKE MICHIGAN

STATION/POSITION TIME  SKY/WX   TEMP WIND        PRES    VSBY
                                AIR  DIR/SP/G
                 (UTC)          (F)  (DEG/KT/KT) (MB)    (MI)
HARRISON CRIB    1740            71   50/  3/  3   N/A
BURNHAM HARBOR   NOT AVBL
CALUMET HARBOR   1742            72   50/  6/  9 1014.5S
BURNS HARBOR     1740            71  360/  5/  6 1015.2F
MICHIGAN CITY    1740            75  340/  3/  4   N/A
$$

ABBREVIATIONS USED IN REMARKS
   TC - TEMPERATURE IN CELSIUS
  WCI - WIND CHILL INDEX
   HX - HEAT INDEX
  VSB - VISIBILITY
$$




USA.gov is the U.S. government's official web portal to all federal, state and local government web resources and services.